Jaipur, India

7:20 AM IST on December 13, 2017 (GMT +0530)
Jaipur

Weather History for VIJP - December, 2012

Change the Weather History Date:

Monday, December 3, 2012

  Actual Average Record
Temperature  
Mean Temperature 64 °F -  
Max Temperature 80 °F - - ()
Min Temperature 49 °F - - ()
Growing Degree Days 14 (Base 50)    
Moisture  
Dew Point 43 °F    
Average Humidity 48    
Maximum Humidity 69    
Minimum Humidity 18    
Precipitation  
Precipitation 0.00 in - - ()
Sea Level Pressure  
Sea Level Pressure 30.05 in    
Wind  
Wind Speed 1 mph ()    
Max Wind Speed 5 mph    
Max Gust Speed -    
Visibility 1.5 miles    
Events      
T = Trace of Precipitation, MM = Missing Value Source: Averaged Metar Reports

Daily Weather History Graph

Daily Weather History Graph

Search for Another Location

Airport or City:

Trip Planner

Search our weather history database for the weather conditions in past years. The results will help you decide how hot, cold, wet, or windy it might be!

Date:

Astronomy

Dec. 03, 2012 Rise Set
Actual Time 6:59 AM IST 5:33 PM IST
Civil Twilight 6:34 AM IST 5:58 PM IST
Nautical Twilight 6:06 AM IST 6:27 PM IST
Astronomical Twilight 5:37 AM IST 6:55 PM IST
Moon 9:40 PM IST (12/3) 10:18 AM IST (12/3)
Length of Visible Light 11h 23m
Length of Day
10h 33m
Waning Gibbous, 82% of the Moon is Illuminated
Dec 3
Waning Gibbous
Dec 6
Last Quarter
Dec 13
New
Dec 20
First Quarter
Dec 28
Full

Hourly Weather History & Observations

Time (IST) Temp. Dew Point Humidity Pressure Visibility Wind Dir Wind Speed Gust Speed Precip Events Conditions
12:00 AM 57.2 °F 41.0 °F 55% 30.06 in 1.2 mi Calm Calm - N/A   Smoke
1:00 AM 57.2 °F 41.0 °F 55% 30.06 in 1.2 mi Calm Calm - N/A   Smoke
2:00 AM 55.4 °F 41.0 °F 58% 30.04 in 1.2 mi Calm Calm - N/A   Smoke
2:30 AM 56 °F 47 °F 64% 30.03 in 1 mi 1.2 mph - -   Smoke
3:00 AM 55.4 °F 41.0 °F 58% 30.04 in 1.2 mi Calm Calm - N/A   Smoke
4:00 AM 51.8 °F 41.0 °F 67% 30.04 in 1.2 mi Variable 2.3 mph - N/A   Smoke
5:00 AM 53.6 °F 41.0 °F 62% 30.04 in 1.2 mi Calm Calm - N/A   Smoke
5:30 AM 54 °F 47 °F 69% 29.97 in 1 mi Calm Calm - -   Smoke
5:30 AM 51.8 °F 41.0 °F 67% 30.04 in 1.2 mi Calm Calm - N/A   Smoke
6:00 AM 51.8 °F 41.0 °F 67% 30.04 in 1.2 mi Calm Calm - N/A   Smoke
6:30 AM 51.8 °F 41.0 °F 67% 30.06 in 1.2 mi Calm Calm - N/A   Smoke
7:00 AM 51.8 °F 41.0 °F 67% 30.06 in 1.2 mi Calm Calm - N/A   Smoke
8:00 AM 55.4 °F 41.0 °F 58% 30.09 in 1.2 mi Variable 1.2 mph - N/A   Smoke
8:30 AM 58 °F 46 °F 53% 30.08 in 1 mi Calm Calm - -   Smoke
9:00 AM 64.4 °F 41.0 °F 42% 30.12 in 1.2 mi Calm Calm - N/A   Smoke
11:00 AM 71.6 °F 37.4 °F 29% 30.12 in 1.9 mi East 4.6 mph - N/A   Smoke
11:30 AM 72 °F 43 °F 25% 30.07 in 2 mi NE 2.3 mph - -   Haze
12:00 PM 73.4 °F 39.2 °F 29% 30.12 in 2.5 mi Variable 1.2 mph - N/A   Haze
1:00 PM 75.2 °F 39.2 °F 27% 30.06 in 2.5 mi Variable 1.2 mph - N/A   Haze
2:00 PM 75.2 °F 41.0 °F 29% 30.06 in 2.5 mi South 4.6 mph - N/A   Haze
2:30 PM 77 °F 42 °F 18% 30.00 in 2 mi 2.3 mph - -   Haze
2:30 PM 77.0 °F 41.0 °F 28% 30.04 in 2.5 mi Variable 2.3 mph - N/A   Haze
3:00 PM 77.0 °F 41.0 °F 28% 30.04 in 2.5 mi SSW 4.6 mph - N/A   Haze
4:00 PM 77.0 °F 42.8 °F 29% 30.04 in 2.2 mi Calm Calm - N/A   Haze
5:00 PM 75.2 °F 42.8 °F 31% 30.04 in 2.2 mi ESE 3.5 mph - N/A   Haze
5:30 PM 73 °F 42 °F 22% 29.98 in 1 mi Calm Calm - -   Haze
5:30 PM 73.4 °F 42.8 °F 33% 30.04 in 2.2 mi Calm Calm - N/A   Haze
8:00 PM 64.4 °F 46.4 °F 52% 30.06 in 0.9 mi Calm Calm - N/A   Smoke
8:30 PM 63 °F 48 °F 48% 30.03 in 1 mi Calm Calm - -   Smoke
9:00 PM 60.8 °F 46.4 °F 59% 30.06 in 0.9 mi Variable 1.2 mph - N/A   Smoke
10:00 PM 62.6 °F 44.6 °F 52% 30.06 in 1.2 mi Calm Calm - N/A   Smoke
11:00 PM 59.0 °F 44.6 °F 59% 30.06 in 1.6 mi Calm Calm - N/A   Smoke
11:30 PM 58 °F 48 °F 61% 30.05 in 1 mi Calm Calm - -   Smoke